Location: Amsterdam
(30.7274°N, 84.4357°W)
Time: 02:52:26
(UTC+00:00)

Courier 1B Rocket - Pass Details

Date: 14 February 2026
Orbit: 920 x 1201 km, 28.2° (Epoch: 13 March)

Event Time Altitude Azimuth Distance (km) Brightness Sun altitude
Rises 06:02:46 0° 274° (W) 3,764 - -72.1°
Reaches altitude 10° 06:05:25 10° 270° (W) 2,853 - -72.0°
Maximum altitude 06:12:17 59° 193° (SSW) 1,261 - -71.7°
Drops below altitude 10° 06:19:39 10° 116° (ESE) 3,047 - -71.2°
Sets 06:22:35 0° 113° (ESE) 4,038 - -70.9°
